TimeCST,TemperatureF,Dew PointF,Humidity,Sea Level PressureIn,VisibilityMPH,Wind Direction,Wind SpeedMPH,Gust SpeedMPH,PrecipitationIn,Events,Conditions,WindDirDegrees,DateUTC
12:53 AM,39.9,34.0,79,30.23,10.0,South,3.5,-,N/A,,Clear,180,2012-12-23 06:53:00
1:53 AM,41.0,35.1,79,30.22,10.0,South,3.5,-,N/A,,Clear,190,2012-12-23 07:53:00
2:53 AM,41.0,35.1,79,30.22,10.0,Calm,Calm,-,N/A,,Clear,0,2012-12-23 08:53:00
3:53 AM,39.0,35.1,86,30.22,10.0,Calm,Calm,-,N/A,,Clear,0,2012-12-23 09:53:00
4:53 AM,41.0,36.0,82,30.22,10.0,Calm,Calm,-,N/A,,Clear,0,2012-12-23 10:53:00
5:53 AM,42.1,36.0,79,30.22,10.0,Calm,Calm,-,N/A,,Clear,0,2012-12-23 11:53:00
6:53 AM,41.0,37.0,86,30.22,10.0,SE,4.6,-,N/A,,Clear,130,2012-12-23 12:53:00
7:53 AM,43.0,37.9,82,30.21,10.0,SE,3.5,-,N/A,,Clear,130,2012-12-23 13:53:00
8:53 AM,46.9,39.9,77,30.22,10.0,Calm,Calm,-,N/A,,Mostly Cloudy,0,2012-12-23 14:53:00
9:53 AM,50.0,42.1,74,30.22,10.0,Calm,Calm,-,N/A,,Mostly Cloudy,0,2012-12-23 15:53:00
10:53 AM,55.9,44.1,64,30.19,10.0,ESE,4.6,-,N/A,,Scattered Clouds,120,2012-12-23 16:53:00
11:53 AM,59.0,44.1,58,30.14,10.0,SSE,9.2,-,N/A,,Overcast,160,2012-12-23 17:53:00
12:53 PM,60.1,46.0,60,30.11,10.0,SSE,6.9,-,N/A,,Overcast,150,2012-12-23 18:53:00
1:53 PM,62.1,48.0,60,30.09,10.0,SSE,6.9,-,N/A,,Overcast,160,2012-12-23 19:53:00
2:53 PM,63.0,50.0,63,30.06,10.0,SSE,6.9,-,N/A,,Overcast,160,2012-12-23 20:53:00
3:53 PM,63.0,52.0,67,30.05,10.0,South,8.1,-,N/A,,Overcast,170,2012-12-23 21:53:00
4:53 PM,63.0,52.0,67,30.04,10.0,SSE,8.1,-,N/A,,Overcast,160,2012-12-23 22:53:00
5:53 PM,62.1,52.0,70,30.04,10.0,SSE,9.2,-,N/A,,Overcast,160,2012-12-23 23:53:00
6:53 PM,61.0,52.0,72,30.02,10.0,SSE,9.2,-,N/A,,Overcast,160,2012-12-24 00:53:00
7:53 PM,62.1,53.1,72,30.02,10.0,South,10.4,-,N/A,,Overcast,170,2012-12-24 01:53:00
8:53 PM,62.1,53.1,72,30.02,10.0,South,9.2,-,N/A,,Overcast,180,2012-12-24 02:53:00
9:53 PM,61.0,54.0,78,30.01,10.0,South,9.2,-,N/A,,Overcast,180,2012-12-24 03:53:00
10:53 PM,61.0,54.0,78,30.00,10.0,South,8.1,-,N/A,,Overcast,180,2012-12-24 04:53:00
11:53 PM,61.0,55.0,81,29.99,10.0,South,8.1,-,0.00,,Mostly Cloudy,180,2012-12-24 05:53:00